www.pogodaiklimat.ru

Погода и климат >> Архив погоды >> Аргентина >> Серес


ПОГОДА в Сересе

  • Прогноз погоды в Сересе
  • Монитор погоды в Сересе

АРХИВ ПОГОДЫ в Сересе

Время (UTC), дата Ветер
(напр.,м/с)
 
Видим.   Явления Облачность Т
(С)
Тd
(С)
f
(%)
Тe
(С)
Тes
(С)
Комфортность P
(гПа)
Po
(гПа)
Тmin
(С)
Tmax
(С)
R
(мм)
R24
(мм)
S
(см)
21 10.06 ЮВ 1 6000 м 10/3 900 м
[Sc diur, vesp As op]
+20.0 +17.4 85 +24 +24 комфорт 1011.9 1001.4 42
00 11.06 Ю 3 8000 м дымка 10/5 900 м
[Sc As op]
+18.6 +17.0 90 +20 +20 1013.7 1003.2 +14.2 +21.6
03 11.06 Ю 1 6000 м дымка 10/8 750 м
[Sc As op]
+18.2 +17.1 93 +20 +20 1013.7 1003.3
06 11.06 Ю 1 6000 м дымка 10/8 750 м
[Sc As op]
+18.1 +17.0 93 +19 +19 1013.7 1003.3
09 11.06 Ю 1 6000 м дымка 6/4 900 м
[Sc Ac As]
+17.1 +16.1 94 +18 +18 1013.0 1002.6
12 11.06 ЮВ 1 4000 м дым {морось} 8/4 900 м
[Sc Ac As]
+17.4 +16.2 93 +18 +19 1012.8 1002.4 +16.5 +18.6 0.0
15 11.06 Ю 1 6000 м дым 10/0
[Cs]
+22.8 +17.5 72 +28 +35 душно 1011.9 1001.7
18 11.06 штиль 0 15 км 10/4 1050 м
[Sc Ac As Cs]
+24.2 +17.5 66 +28 +30 душно 1009.6 999.4
21 11.06 СВ 1 15 км 9/0
[Ac As Cs]
+22.4 +18.6 79 +28 +28 душно 1007.8 997.6
00 12.06 Ю 1 15 км 10/0 1500 м
[As op]
+19.2 +17.3 89 +22 +22 комфорт 1008.8 998.5 +17.4 +24.5
03 12.06 Ю 1 15 км 8/0
[Ac As]
+18.3 +16.7 90 +20 +20 1008.5 998.2
06 12.06 Ю 1 15 км 9/0
[Ac As]
+18.1 +16.8 92 +19 +19 1007.0 996.8
09 12.06 СВ 1 4000 м дымка 6/5 540 м
[St Ac As]
+18.6 +17.8 95 +21 +21 комфорт 1007.7 997.4
12 12.06 СЗ 1 200 м туман 10/10 540 м
[St]
+19.1 +18.5 96 +22 +22 комфорт 1007.1 996.8 +17.8 +19.5
15 12.06 З 1 800 м туман 10/10 450 м
[St]
+20.5 +19.9 96 +26 +26 душно 1009.1 998.9
18 12.06 Ю 3 5000 м дымка {туман} 10/10 600 м
[St]
+23.0 +19.0 78 +29 +29 очень
душно
1007.8 997.6
21 12.06 Ю 3 8000 м дымка 10/8 1200 м
[Sc Ac As]
+22.4 +20.3 88 +29 +29 очень
душно
1008.4 998.1
00 13.06 Ю 4 6000 м дымка 10/6 1200 м
[Sc Ac As]
+21.4 +19.5 89 +26 +26 душно 1009.4 999.2 +19.1 +23.0
03 13.06 В 1 6000 м дымка 8/6 1050 м
[Sc Ac As]
+20.2 +19.3 95 +25 +25 комфорт 1008.6 998.4
06 13.06 В 1 4000 м дымка 10/10 540 м
[St]
+20.3 +19.5 95 +25 +25 комфорт 1007.6 997.4
09 13.06 В 1 200 м туман 10/10 300 м
[St]
+19.8 +19.2 96 +24 +24 комфорт 1008.0 997.8
12 13.06 ЮЗ 3 200 м туман 10/10 240 м
[St]
+17.8 +17.1 96 +18 +18 1009.2 998.9 +17.6 +21.4
15 13.06 Ю 3 4000 м дымка {туман} 10/10 300 м
[St]
+19.4 +17.5 89 +22 +22 комфорт 1010.0 999.7
18 13.06 Ю 4 5000 м дымка {туман} 10/10 450 м
[St]
+18.0 +16.7 92 +18 +18 1008.1 997.8
21 13.06 штиль 0 3000 м дымка 10/10 360 м
[St]
+17.8 +16.5 92 +18 +18 1007.4 997.0
00 14.06 Ю 3 2000 м дымка 10/10 300 м
[St]
+17.6 +16.6 94 +18 +18 1010.0 999.6 +17.6 +20.0
03 14.06 Ю 7 4000 м дымка 10/9 300 м
[St As op]
+16.4 +15.4 94 +15 +15 1012.5 1002.1
06 14.06 Ю 7 5000 м дымка 10/10 450 м
[St]
+15.0 +13.6 91 +13 +13 1013.4 1003.0
09 14.06 Ю 7 6000 м дымка 10/10 450 м
[St]
+14.5 +13.3 93 +12 +12 1014.5 1004.1
12 14.06 Ю 4 8000 м дымка 10/10 540 м
[St]
+14.6 +12.8 89 +13 +13 1015.9 1005.4 +14.2 +17.8
15 14.06 Ю 7 15 км 10/10 600 м
[Sc]
+16.1 +13.6 85 +15 +15 1016.3 1005.8
18 14.06 Ю 4 6000 м дым 10/10 600 м
[Sc As op]
+16.0 +12.8 81 +15 +15 1014.9 1004.4
21 14.06 Ю 4 6000 м дым 10/9 750 м
[Sc As op]
+16.4 +12.8 79 +16 +16 1014.2 1003.7
00 15.06 Ю 7 15 км 10/9 450 м
[Frnb As op]
+15.2 +11.5 79 +13 +13 1015.5 1004.9 +14.6 +17.0
03 15.06 Ю 4 3000 м слаб. морось 10/9 480 м
[Frnb As op]
+13.0 +12.1 94 +11 +11 1015.4 1004.9
06 15.06 Ю 7 4000 м слаб. морось 10/10 480 м
[Frnb]
+12.4 +11.5 94 +9 +9 1014.2 1003.7 0.0
09 15.06 Ю 4 3000 м слаб. морось 10/10 540 м
[Frnb]
+11.8 +11.0 95 +9 +9 1013.9 1003.4
12 15.06 Ю 7 1500 м слаб. морось 10/9 540 м
[Frnb As op]
+11.4 +10.8 96 +8 +8 1015.3 1004.8 +11.0 +15.2 0.5
15 15.06 Ю 4 5000 м слаб. морось 10/9 450 м
[Frnb As op]
+12.4 +11.5 94 +10 +10 1017.0 1006.4
18 15.06 Ю 3 3000 м слаб. морось 10/9 450 м
[Frnb As op]
+12.8 +11.7 93 +12 +12 1016.3 1005.7 0.5
21 15.06 Ю 9 8000 м слаб. морось 10/9 450 м
[Frnb As op]
+11.4 +9.8 90 +8 +8 1016.5 1005.8
00 16.06 Ю 7 3000 м слаб. дождь {морось} 10/9 360 м
[Frnb As op]
+10.0 +8.8 92 +6 +6 1018.9 1008.2 +10.0 +13.0 2
03 16.06 Ю 9 6000 м слаб. морось 10/9 450 м
[Frnb As op]
+10.2 +9.2 94 +6 +6 1019.5 1008.8
06 16.06 Ю 9 4000 м слаб. морось 10/9 450 м
[Frnb As op]
+10.1 +9.1 94 +6 +6 1019.7 1008.9 2
09 16.06 Ю 4 3000 м гроза, ливневой дождь 10/9 540 м
[Cb cap As op]
+10.0 +9.0 93 +7 +7 1020.0 1009.3
12 16.06 Ю 4 6000 м слаб. ливневой дождь, в посл. час гроза 10/9 540 м
[Cb cap As op]
+9.8 +8.8 93 +7 +7 1021.7 1010.9 +9.5 +10.3 3
15 16.06 Ю 4 6000 м дымка {дождь} 10/10 540 м
[St]
+10.0 +8.8 92 +7 +7 1022.5 1011.7
18 16.06 Ю 4 15 км {дождь} 10/10 600 м
[Sc]
+11.0 +8.6 85 +9 +9 1022.7 1012.0 0.0
21 16.06 Ю 3 15 км 10/10 750 м
[Sc]
+11.2 +8.4 83 +10 +10 1021.2 1010.5
00 17.06 Ю 3 15 км 10/10 750 м
[St]
+11.1 +8.7 85 +9 +9 1022.9 1012.1 +9.6 +11.5
03 17.06 Ю 1 15 км 10/10 540 м
[St]
+10.3 +8.7 90 +10 +10 1023.4 1012.6
06 17.06 штиль 0 15 км 9/9 540 м
[St]
+10.8 +8.6 86 +10 +10 1023.0 1012.2
09 17.06 Ю 1 3000 м слаб. морось 10/10 540 м
[St]
+10.4 +8.8 90 +10 +10 1021.0 1010.2
12 17.06 штиль 0 15 км {морось} 10/10 540 м
[St]
+10.2 +8.6 90 +9 +9 1022.4 1011.6 +9.5 +11.1 0.0
15 17.06 ЮЗ 1 15 км 10/10 600 м
[Sc]
+11.3 +8.7 84 +11 +11 1021.7 1010.9
18 17.06 штиль 0 15 км {морось} 10/9 450 м
[Frnb As op]
+11.8 +8.6 81 +11 +11 1018.6 1008.0 0.0

 

Местоположение метеостанции Серес (Аргентина): широта -29.88 долгота -61.95 высота над уровнем моря 88 м.

В архиве по умолчанию представлена погода в Сересе за последнюю неделю. Архивные данные за месяц целиком и за предыдущие месяцы, начиная с января 2011 года, Вы можете получить, выбрав интересующий диапазон дат из раскрывающегося списка и нажав кнопку "Ввод!".


*Определитесь, кто Вы:
робот инопланетянин человек

Внимание! Время в таблицах - всемирное. Для получения местного времени необходимо прибавить поправку, которая равна -3 ч.

Смотрите также архив погоды в соседних городах и на ближайших метеорологических станциях:

Погода в Вилла де Мария дель Рио Секо (Аргентина) (167 км)
Погода в Санта-Фе (Аргентина) (230 км)
Погода в Реконкисте (Аргентина) (231 км)
Погода в Паране (Аргентина) (254 км)
Погода в Кордове (Аргентина) (269 км)
Погода в Пиларе (Аргентина) (271 км)
Погода в Маркос Хуарес (Аргентина) (314 км)
Погода в Сантьяго-дель-Эстеро (Аргентина) (329 км)
Погода в Росарио (Аргентина) (355 км)
Погода в Пресиденсиа-Роке-Саэнс-Пеньи (Аргентина) (379 км)

Пояснения к столбцам:

Ветер - указаны скорость ветра в м/с - средняя за 10 мин, порывы в срок и между сроками (в фигурных скобках) и направление, откуда дует ветер: С - северный, СВ - северо-восточный, В - восточный, ЮВ - юго-восточный, Ю - южный, ЮЗ - юго-западный, З - западный, СЗ - северо-западный.
Видимость - горизонтальная дальность видимости в метрах или километрах. При видимости от 1 до 10 км при отсутствии осадков обычно наблюдается дымка, при ухудшении видимости до 1 км и менее - туман. В сухую погоду видимость может ухудшаться дымом, пылью или мглою.
Явления - указаны атмосферные явления, наблюдавшиеся в срок или в последний час перед сроком; фигурными скобками обозначены явления, наблюдавшиеся между сроками (за 1-3 часа до срока); квадратными скобками обозначены град или гололедные отложения с указанием их диаметра в мм.
Облачность - указаны через наклонную черту общая и нижняя облачность в баллах и высота нижней границы облаков в метрах; квадратными скобками обозначены формы облаков: Ci - перистые, Cs - перисто-слоистые, Cc - перисто-кучевые, Ac - высококучевые, As - высокослоистые, Sc - слоисто-кучевые, Ns - слоисто-дождевые, Cu - кучевые, Cb - кучево-дождевые. Подробнее классификацию облаков см. в Атласе облаков (PDF).
T - Температура воздуха - температура, измеренная на высоте 2 м над землей.
Td - Температура точки росы - температура, при понижении до которой содержащийся в воздухе водяной пар достигнет насыщения.
f - Относительная влажность воздуха - влажноcть воздуха, измеренная на высоте 2 м над землей.
Te - Эффективная температура - температура, которую ощущает одетый по сезону человек в тени. Характеристика душности погоды. При расчете учитывается влияние влажности воздуха и скорости ветра на теплоощущения человека.
Tes - Эффективная температура на солнце - температура, которую ощущает человек, с поправкой на солнечный нагрев. Характеристика знойности погоды. Зависит от высоты солнца над горизонтом, облачности и скорости ветра. Ночью, в пасмурную погоду, а также при ветре 12 м/с и более поправка равна нулю.
P - Атмосферное давление - приведенное к уровню моря атмосферное давление.
Po - Атмосферное давление - измеренное на уровне метеостанции атмосферное давление.
Tmin - Минимальная температура - минимум температуры воздуха на высоте 2 м над землей.
Tmax - Максимальная температура - максимум температуры воздуха на высоте 2 м над землей.
R - Количество осадков - Количество выпавших осадков за период времени, мм. При наведении курсора мыши на число - период времени, за который выпало указанное количество осадков.
R24 - Количество осадков - Количество выпавших осадков за 24 часа, мм.
S - Снежный покров - Высота снежного покрова, см. При наведении курсора мыши на число - состояние снежного покрова и степень покрытия местности в баллах.